Eveleth, MN

10:37 PM CST on February 12, 2016 (GMT -0600)
Eveleth-Virginia Municipal

Weather History for KEVM - November, 2013

Change the Weather History Date:

Monday, November 4, 2013

  Actual Average Record
Temperature  
Mean Temperature 37 °F -  
Max Temperature 42 °F 39 °F 68 °F (2008)
Min Temperature 32 °F 25 °F 3 °F (1991)
Degree Days  
Heating Degree Days 28    
Moisture  
Dew Point 34 °F    
Average Humidity 80    
Maximum Humidity 100    
Minimum Humidity 66    
Precipitation  
Precipitation 0.10 in - - ()
Sea Level Pressure  
Sea Level Pressure 29.86 in    
Wind  
Wind Speed 12 mph (South)    
Max Wind Speed 18 mph    
Max Gust Speed 26 mph    
Visibility 10 miles    
Events Rain    
Averages and records for this station are not official NWS values.
T = Trace of Precipitation, MM = Missing Value Source: NWS Daily Summary

Daily Weather History Graph

Daily Weather History Graph

Search for Another Location

Airport or City:

Trip Planner

Search our weather history database for the weather conditions in past years. The results will help you decide how hot, cold, wet, or windy it might be!

Date:

Astronomy

Nov. 04, 2013 Rise Set
Actual Time 6:58 AM CST 4:47 PM CST
Civil Twilight 6:26 AM CST 5:20 PM CST
Nautical Twilight 5:49 AM CST 5:56 PM CST
Astronomical Twilight 5:13 AM CST 6:32 PM CST
Moon 8:13 AM CST (11/4) 5:48 PM CST (11/4)
Length of Visible Light 10h 54m
Length of Day
9h 49m
New Moon, 2% of the Moon is Illuminated
Nov 4
New Moon
Nov 9
First Quarter
Nov 17
Full
Nov 25
Last Quarter
Dec 2
New

Hourly Weather History & Observations

Time (CST) Temp. Windchill Dew Point Humidity Pressure Visibility Wind Dir Wind Speed Gust Speed Precip Events Conditions
12:07 AM 42.8 °F 35.4 °F 32.0 °F 66% 29.91 in 10.0 mi SSE 15.0 mph 18.4 mph N/A   Overcast
12:26 AM 42.8 °F 38.0 °F 32.0 °F 66% 29.91 in 10.0 mi SE 8.1 mph 17.3 mph N/A   Overcast
12:47 AM 42.8 °F 36.2 °F 32.0 °F 66% 29.91 in 10.0 mi SE 12.7 mph 18.4 mph N/A   Overcast
1:07 AM 42.8 °F 35.8 °F 32.0 °F 66% 29.90 in 10.0 mi SE 13.8 mph 20.7 mph N/A   Overcast
1:26 AM 42.8 °F 37.0 °F 32.0 °F 66% 29.90 in 10.0 mi SE 10.4 mph 19.6 mph N/A   Overcast
1:47 AM 42.8 °F 34.5 °F 32.0 °F 66% 29.89 in 10.0 mi SSE 18.4 mph 26.5 mph N/A   Overcast
2:07 AM 42.8 °F 34.5 °F 32.0 °F 66% 29.88 in 10.0 mi SSE 18.4 mph 25.3 mph N/A   Overcast
2:26 AM 42.8 °F 35.8 °F 32.0 °F 66% 29.88 in 10.0 mi SSE 13.8 mph 24.2 mph N/A   Overcast
2:47 AM 42.8 °F 37.0 °F 32.0 °F 66% 29.87 in 10.0 mi SSE 10.4 mph 18.4 mph N/A   Overcast
3:07 AM 42.8 °F 37.5 °F 32.0 °F 66% 29.86 in 10.0 mi SSE 9.2 mph 21.9 mph N/A   Overcast
3:26 AM 42.8 °F 36.2 °F 32.0 °F 66% 29.86 in 10.0 mi SE 12.7 mph 19.6 mph N/A   Overcast
3:47 AM 41.0 °F 33.9 °F 33.8 °F 76% 29.86 in 10.0 mi SSE 12.7 mph 16.1 mph N/A   Light Drizzle
4:07 AM 41.0 °F 35.2 °F 33.8 °F 76% 29.86 in 10.0 mi SE 9.2 mph - N/A   Drizzle
4:26 AM 39.2 °F 33.0 °F 33.8 °F 81% 29.85 in 10.0 mi SE 9.2 mph - N/A   Light Drizzle
4:47 AM 39.2 °F 33.0 °F 33.8 °F 81% 29.85 in 10.0 mi SSE 9.2 mph - N/A   Overcast
5:07 AM 41.0 °F 35.2 °F 33.8 °F 76% 29.85 in 10.0 mi SE 9.2 mph - N/A   Overcast
5:26 AM 42.8 °F 37.5 °F 33.8 °F 70% 29.85 in 10.0 mi SE 9.2 mph - N/A   Overcast
5:47 AM 42.8 °F 38.0 °F 33.8 °F 70% 29.84 in 10.0 mi SE 8.1 mph - N/A   Overcast
6:07 AM 42.8 °F 36.2 °F 32.0 °F 66% 29.84 in 10.0 mi South 12.7 mph 17.3 mph N/A   Overcast
6:26 AM 42.8 °F 36.6 °F 32.0 °F 66% 29.83 in 10.0 mi SSE 11.5 mph 19.6 mph N/A   Overcast
6:47 AM 42.8 °F 38.6 °F 32.0 °F 66% 29.83 in 10.0 mi SSE 6.9 mph 17.3 mph N/A   Overcast
7:06 AM 42.8 °F 37.5 °F 32.0 °F 66% 29.83 in 10.0 mi SSE 9.2 mph 18.4 mph N/A   Overcast
7:27 AM 42.8 °F 38.0 °F 32.0 °F 66% 29.83 in 10.0 mi SSE 8.1 mph 16.1 mph N/A   Overcast
7:47 AM 42.8 °F 36.6 °F 32.0 °F 66% 29.83 in 10.0 mi SSE 11.5 mph 20.7 mph N/A   Overcast
8:06 AM 42.8 °F 37.5 °F 32.0 °F 66% 29.83 in 10.0 mi SSE 9.2 mph 16.1 mph N/A   Overcast
8:27 AM 42.8 °F 37.0 °F 32.0 °F 66% 29.82 in 10.0 mi SSE 10.4 mph - N/A   Overcast
8:47 AM 42.8 °F 37.5 °F 33.8 °F 70% 29.82 in 10.0 mi SSE 9.2 mph 16.1 mph N/A   Overcast
9:07 AM 42.8 °F 36.2 °F 33.8 °F 70% 29.81 in 10.0 mi SSE 12.7 mph 19.6 mph N/A   Overcast
9:27 AM 42.8 °F 36.2 °F 33.8 °F 70% 29.81 in 10.0 mi SSE 12.7 mph 19.6 mph N/A   Overcast
9:47 AM 42.8 °F 35.8 °F 33.8 °F 70% 29.80 in 10.0 mi South 13.8 mph 25.3 mph N/A   Overcast
10:07 AM 42.8 °F 35.8 °F 33.8 °F 70% 29.80 in 10.0 mi South 13.8 mph 26.5 mph N/A   Overcast
10:27 AM 42.8 °F 36.2 °F 33.8 °F 70% 29.80 in 10.0 mi South 12.7 mph 21.9 mph N/A   Overcast
10:46 AM 42.8 °F 35.8 °F 33.8 °F 70% 29.80 in 10.0 mi South 13.8 mph 23.0 mph N/A   Overcast
11:07 AM 42.8 °F 36.2 °F 33.8 °F 70% 29.79 in 10.0 mi South 12.7 mph 17.3 mph N/A   Overcast
11:26 AM 42.8 °F 36.2 °F 33.8 °F 70% 29.79 in 10.0 mi South 12.7 mph 17.3 mph N/A   Overcast
11:47 AM 42.8 °F 35.8 °F 35.6 °F 76% 29.79 in 10.0 mi South 13.8 mph 19.6 mph N/A Rain Rain
12:07 PM 42.8 °F 36.2 °F 37.4 °F 81% 29.78 in 10.0 mi SSE 12.7 mph - N/A   Drizzle
12:26 PM 41.0 °F 33.5 °F 37.4 °F 87% 29.77 in 7.0 mi South 13.8 mph 20.7 mph 0.02 in Rain Light Rain
12:47 PM 39.2 °F 30.8 °F 37.4 °F 93% 29.77 in 5.0 mi South 15.0 mph 19.6 mph 0.03 in Rain Light Rain
1:07 PM 39.2 °F 31.6 °F 37.4 °F 93% 29.77 in 5.0 mi South 12.7 mph 19.6 mph 0.01 in Rain Light Rain
1:26 PM 39.2 °F 30.8 °F 37.4 °F 93% 29.77 in 7.0 mi South 15.0 mph 19.6 mph 0.04 in Rain Light Rain
1:47 PM 39.2 °F 31.6 °F 37.4 °F 93% 29.77 in 7.0 mi South 12.7 mph 20.7 mph 0.05 in Rain Light Rain
2:07 PM 39.2 °F 30.5 °F 37.4 °F 93% 29.77 in 7.0 mi South 16.1 mph 19.6 mph N/A Rain Light Rain
2:26 PM 39.2 °F 32.0 °F 37.4 °F 93% 29.76 in 10.0 mi South 11.5 mph 18.4 mph 0.02 in Rain Rain
2:47 PM 39.2 °F 33.0 °F 37.4 °F 93% 29.76 in 10.0 mi South 9.2 mph - 0.02 in Rain Light Rain
3:07 PM 41.0 °F 35.8 °F 37.4 °F 87% 29.77 in 10.0 mi South 8.1 mph - N/A   Light Drizzle
3:26 PM 41.0 °F 35.8 °F 39.2 °F 93% 29.78 in 10.0 mi SW 8.1 mph 16.1 mph N/A   Light Drizzle
3:47 PM 42.8 °F 35.8 °F 41.0 °F 93% 29.80 in 10.0 mi WSW 13.8 mph 19.6 mph N/A   Light Drizzle
4:07 PM 41.0 °F 34.3 °F 37.4 °F 87% 29.81 in 10.0 mi West 11.5 mph - N/A   Overcast
4:26 PM 39.2 °F 33.0 °F 35.6 °F 87% 29.82 in 10.0 mi WSW 9.2 mph - N/A   Overcast
4:47 PM 39.2 °F 35.0 °F 35.6 °F 87% 29.83 in 10.0 mi WSW 5.8 mph - N/A   Light Drizzle
5:06 PM 39.2 °F 32.5 °F 37.4 °F 93% 29.84 in 10.0 mi WSW 10.4 mph - N/A   Light Drizzle
5:27 PM 39.2 °F 31.2 °F 35.6 °F 87% 29.86 in 10.0 mi WSW 13.8 mph 19.6 mph N/A   Overcast
5:47 PM 37.4 °F 28.9 °F 33.8 °F 87% 29.88 in 10.0 mi West 13.8 mph 19.6 mph N/A   Overcast
6:06 PM 35.6 °F 27.5 °F 33.8 °F 93% 29.90 in 10.0 mi WSW 11.5 mph 20.7 mph N/A   Overcast
6:27 PM 35.6 °F 27.1 °F 33.8 °F 93% 29.90 in 10.0 mi WSW 12.7 mph 18.4 mph N/A   Overcast
6:47 PM 35.6 °F 25.5 °F 32.0 °F 87% 29.91 in 10.0 mi WSW 17.3 mph 23.0 mph N/A   Overcast
7:06 PM 35.6 °F 28.6 °F 32.0 °F 87% 29.92 in 10.0 mi WSW 9.2 mph 16.1 mph N/A   Overcast
7:27 PM 35.6 °F 28.0 °F 32.0 °F 87% 29.93 in 10.0 mi West 10.4 mph - N/A   Mostly Cloudy
7:47 PM 33.8 °F 27.7 °F 30.2 °F 87% 29.93 in 10.0 mi WSW 6.9 mph - N/A   Clear
8:07 PM 33.8 °F 29.6 °F 32.0 °F 93% 29.93 in 10.0 mi SW 4.6 mph - N/A   Mostly Cloudy
8:27 PM 32.0 °F 27.5 °F 32.0 °F 100% 29.95 in 10.0 mi SW 4.6 mph - N/A   Overcast
8:47 PM 33.8 °F 28.6 °F 32.0 °F 93% 29.96 in 10.0 mi SW 5.8 mph - N/A   Overcast
9:06 PM 32.0 °F 25.6 °F 30.2 °F 93% 29.97 in 10.0 mi SW 6.9 mph - N/A   Scattered Clouds
9:27 PM 32.0 °F 25.6 °F 30.2 °F 93% 29.98 in 10.0 mi SW 6.9 mph - N/A   Clear
9:47 PM 32.0 °F 24.8 °F 32.0 °F 100% 29.98 in 10.0 mi SW 8.1 mph - N/A   Clear
10:06 PM 32.0 °F 24.8 °F 30.2 °F 93% 30.00 in 10.0 mi SW 8.1 mph - N/A   Clear
10:27 PM 32.0 °F 24.8 °F 30.2 °F 93% 30.00 in 10.0 mi SW 8.1 mph - N/A   Clear
10:47 PM 32.0 °F 24.2 °F 30.2 °F 93% 30.00 in 10.0 mi SW 9.2 mph - N/A   Clear
11:06 PM 32.0 °F 23.6 °F 30.2 °F 93% 30.01 in 10.0 mi SW 10.4 mph - N/A   Clear
11:27 PM 32.0 °F 24.8 °F 30.2 °F 93% 30.02 in 10.0 mi SW 8.1 mph - N/A   Clear
11:47 PM 32.0 °F 24.8 °F 30.2 °F 93% 30.03 in 10.0 mi SW 8.1 mph - N/A   Clear